Location: Poughquag
(41.6090°N, 73.6820°W)
Time: 23:57:04
(UTC-04:00)

CUBEBUG 2 - Visible Passes

Search period start: 27 May 2024 00:00
Search period end: 06 June 2024 00:00
Orbit: 570 x 668 km, 97.8° (Epoch: 27 May)

Date Brightness Start Highest point End Pass type
(mag) Time Alt. Az. Time Alt. Az. Time Alt. Az.
27 May ? 02:54:14 10° NNE 02:58:46 67° ESE 03:00:19 40° S visible
27 May ? 04:32:07 10° NNW 04:34:18 13° WNW 04:36:30 10° W visible
28 May ? 03:11:13 10° N 03:15:48 81° WNW 03:17:35 37° SSW visible
29 May ? 01:53:42 10° NE 01:56:24 15° E 01:57:41 14° ESE visible
29 May ? 03:28:19 10° N 03:32:46 53° WNW 03:34:50 29° SW visible
30 May ? 02:09:56 10° NE 02:13:33 23° E 02:14:55 20° ESE visible
30 May ? 03:45:32 10° N 03:49:41 35° WNW 03:52:04 21° WSW visible
31 May ? 02:26:29 10° NNE 02:30:39 34° E 02:32:09 27° SE visible
31 May ? 04:02:52 10° NNW 04:06:34 25° WNW 04:09:17 15° WSW visible
01 Jun ? 02:43:14 10° NNE 02:47:43 51° E 02:49:21 34° SSE visible
01 Jun ? 04:20:26 10° NNW 04:23:23 17° WNW 04:26:21 10° WSW visible
02 Jun ? 03:00:07 10° NNE 03:04:43 79° ESE 03:06:33 36° S visible
02 Jun ? 04:38:29 10° NW 04:40:09 12° WNW 04:41:49 10° W visible
03 Jun ? 01:43:30 10° ENE 01:45:08 12° E 01:46:35 10° ESE visible
03 Jun ? 03:17:05 10° N 03:21:41 70° WNW 03:23:44 32° SSW visible
04 Jun ? 01:59:10 10° NE 02:02:16 18° E 02:03:46 16° ESE visible
04 Jun ? 03:34:11 10° N 03:38:35 46° WNW 03:40:55 25° SW visible
05 Jun ? 02:15:30 10° NE 02:19:23 26° E 02:20:56 22° SE visible
05 Jun ? 03:51:23 10° N 03:55:25 31° WNW 03:58:04 18° WSW visible
